OBJECT P, 61748

Orbit data source: Space-Track

You're viewing an uncataloged RSO

Recently launched and/or uncataloged RSOs may have evolving metadata. Metadata may include the following, but is not limited to: Owner, Manufacturer, Bus, Motor, and Mission.

OBJECT P, 61748 is a satellite in SSO that was launched on Mon, 04 Nov 2024 UTC via a SOYUZ-2-1B launch vehicle from the Vostochny Cosmodrome (VOSTO). Unknown objects in Earth's orbit typically refer to objects detected orbiting the Earth but have not yet been identified or cataloged. These objects could be anything from previously untracked satellites, spent rocket stages, debris from satellite collisions, or even natural meteoroids temporarily captured by Earth's gravity.

Not visible in the next 10 days
Identifier
61748, 2024-199P
Orbit
SSO
Country
Flag of TBDTBD
Related business
Manufacturer
Sputniks
Mission
Operational Commercial Communications
Bus & Motor
CUBESAT 3U?, Unknown motor
Mass
3 kg wet, 3 kg dry
Launch date (UTC)
2024-11-04 (2 years ago)
Launch vehicle
SOYUZ-2-1B
Launch site
Vostochny Cosmodrome (VOSTO)
Object type
Unknown
Shape & HBR
Box, 0.2 m
Radar Cross Section
0.035 m², Medium (>0.1 m² and < 1m²)

Expand to show TLE details & history
Last TLE update: 10 hours ago

TLE from 10 hours ago
0 OBJECT P
1 61748U 24199P   26264.24445087  .00373592  58814-4  86380-3 0  9992
2 61748  97.2623 148.5764 0004086 162.0345 198.1077 15.97177549152940
Epoch: 2026-09-21T05:52Z
TLE epoch observation values (Epoch: 2026-09-21T05:52:00.555Z)
Latitude
-0.00002°
Longitude
60.44703°
Altitude
288.04 km
Speed
7.733 km/s
True Right ascension
09h 54m 18s
True Declination
0° 00' 00"
Sunlit
Object was in daylight at epoch
Visualization orbit readout
Latitude
Unknown
Longitude
Unknown
Altitude
Unknown
Speed
Unknown
Apparent Right ascension
Unknown
Apparent Declination
Unknown
Sunlit
N/A
Visualization observer readout
Local Sidereal Time
08:59:35
Azimuth
Unknown
Elevation
Unknown
Doppler factor
Unknown
Orbital elements
Apogee altitude
281.831 km
Perigee altitude
276.391 km
Semi-major axis
6,657.248 km
Eccentricity
0.00041
Inclination
97.2623°
RAAN
148.5764°
Arg. of periapsis
162.0345°
True anomaly
198.09315°
Mean anomaly
198.1077°
Eccentric anomaly
198.10043°
Mean motion
3.99578 °/min
Orbital period
90.1 mins
BSTAR
0.0008638
Loading maneuver chart data...
Computing Atmospheric mass density...
Loading historical data...
Loading historical data...
Loading historical data...
Loading historical data...
Loading historical data...
Loading historical data...
Loading historical data...

Documentation

Showing up to 5 results
|